#timestamp,LO_Frequency,Hit,StdDev 
1543226415.8,286047001.7,N
1543226435.6,286047001.2,N
1543226455.4,286046993.4,N
1543226475.3,286046992.8,N
1543226495.1,286046988.6,N
1543226515.8,286046987.2,N
1543226535.7,286046986.5,N
1543226555.5,286046984.1,N
1543226575.4,286046984.6,N
1543226595.2,286046981.1,Y
1543226615.0,286046991.5,P
1543226615.9,286046991.5,P
1543226635.8,286046991.4,P
1543226655.6,286046988.7,Y
1543226675.4,286046996.2,P
1543226695.3,286046997.7,N
1543226715.1,286046999.0,N
1543226735.9,286046997.0,N
1543226755.7,286046996.8,N
1543226775.5,286047000.8,N
1543226795.4,286047001.8,N
1543226815.2,286047002.1,N
1543226835.0,286047005.0,N
1543226836.0,286047005.0,N
1543226855.8,286047003.3,N
1543226875.6,286047011.1,N
1543226895.5,286047020.7,Y
1543226915.3,286047018.8,P
1543226935.1,286047012.6,N
1543226955.9,286047013.9,N
1543226975.7,286047011.2,N
1543226995.6,286047013.3,N
1543227015.4,286047010.9,N
1543227035.2,286047009.3,N
1543227055.1,286047008.0,N
1543227056.0,286047008.0,N
1543227075.8,286047010.8,N
1543227095.6,286047007.9,N
1543227115.5,286047007.7,N
1543227135.3,286047010.8,N
1543227155.1,286047009.9,N
1543227175.9,286047010.6,N
1543227195.7,286047010.7,N
1543227215.6,286047010.0,N
1543227235.4,286047008.8,N
1543227255.2,286047007.1,N
1543227275.1,286047004.6,N
1543227276.0,286047004.6,N
1543227295.8,286047004.9,N
1543227315.7,286047010.1,N
1543227335.5,286047008.0,N
1543227355.3,286047010.0,N
1543227375.2,286047014.4,Y
1543227395.9,286047008.8,P
1543227415.7,286047003.8,P
1543227435.6,286047001.6,N
1543227455.4,286047002.6,N
1543227475.3,286047000.9,N
1543227495.1,286046999.1,N
1543227496.0,286046999.1,N
1543227515.8,286046995.3,N
1543227535.7,286046994.3,N
1543227555.5,286046993.0,N
1543227575.3,286046989.4,N
1543227595.2,286046985.3,N
1543227615.0,286046985.4,N
1543227615.9,286046985.4,N
1543227635.8,286046986.1,N
1543227655.6,286046987.7,N
1543227675.4,286046984.0,N
1543227695.3,286046980.5,N
1543227715.1,286046982.6,N
1543227735.8,286046981.9,N
1543227755.7,286046977.5,N
1543227775.5,286046979.4,N
1543227795.3,286046985.1,N
1543227815.2,286046982.7,N
1543227835.0,286046981.5,N
1543227835.9,286046981.5,N
1543227855.8,286046975.8,N
1543227875.6,286046976.9,N
1543227895.4,286046976.2,N
1543227915.3,286046980.3,N
1543227935.1,286046974.7,N
1543227955.9,286046975.2,N
1543227975.7,286046973.1,Y
1543227995.5,286046986.7,P
1543228015.4,286046985.0,P
1543228035.2,286046986.7,P
1543228055.1,286046992.4,Y
1543228056.0,286046992.4,P
1543228075.8,286047021.1,P
1543228095.6,286047022.6,N
1543228115.5,286047020.0,N
1543228135.3,286047016.7,N
1543228155.1,286047018.6,N
1543228175.9,286047013.8,N
1543228195.7,286047010.8,N
1543228215.5,286047005.5,N
1543228235.4,286047002.3,N
1543228255.2,286046998.7,N
1543228275.1,286046997.8,N
1543228276.0,286046997.8,N
1543228295.8,286046996.8,N
1543228315.6,286046998.0,N
1543228335.5,286046995.3,N
1543228355.3,286046996.5,N
1543228375.1,286046998.1,N
1543228395.9,286046998.4,N
1543228415.7,286046999.2,N
1543228435.6,286046998.3,N
1543228455.4,286047000.9,N
1543228475.2,286046998.8,N
1543228495.1,286046999.5,N
1543228496.0,286046999.5,N
1543228515.8,286046996.9,N
1543228535.6,286046997.1,N
1543228555.5,286046997.1,N
1543228575.3,286046995.3,N
1543228595.2,286046994.4,N
1543228615.9,286046991.0,N
1543228635.7,286046996.8,N
1543228655.6,286047002.8,N
1543228675.4,286047000.2,N
1543228695.2,286047001.6,N
1543228715.1,286047002.5,N
1543228716.0,286047002.5,N
1543228735.8,286046997.9,N
1543228755.7,286046992.8,N
1543228775.5,286046988.1,Y
1543228795.3,286046987.3,P
1543228815.2,286046986.5,N
1543228835.0,286046985.9,N
1543228835.9,286046985.9,N
1543228855.8,286046982.6,Y
1543228875.6,286046993.2,P
1543228895.4,286046991.2,P
1543228915.3,286046987.4,P
1543228935.1,286046985.6,Y
1543228955.8,286046995.1,P
1543228975.7,286046995.7,N
1543228995.5,286046995.6,N
1543229015.4,286047003.1,N
1543229035.2,286047012.7,Y
1543229055.0,286047023.1,P
1543229055.9,286047023.1,N
1543229075.8,286047021.3,N
1543229095.6,286047014.3,N
1543229115.4,286047010.9,N
1543229135.3,286047011.6,N
1543229155.1,286047009.1,N
1543229175.9,286047004.8,N
1543229195.7,286047003.2,N
1543229215.5,286047002.2,N
1543229235.4,286047010.8,N
1543229255.2,286047014.9,N
1543229275.0,286047013.5,N
1543229275.9,286047013.5,N
1543229295.8,286047009.0,N
1543229315.6,286047005.6,N
1543229335.5,286047001.1,N
1543229355.3,286046998.9,N
1543229375.1,286046998.0,N
1543229395.9,286046994.1,N
1543229415.7,286046991.7,N
1543229435.5,286046993.9,N
1543229455.4,286046993.8,N
1543229475.2,286046995.8,N
1543229495.1,286046995.3,N
1543229496.0,286046995.3,N
1543229515.8,286047001.0,N
1543229535.6,286047002.3,N
1543229555.5,286047006.6,N
1543229575.3,286047006.5,N
1543229595.1,286047005.9,N
1543229615.9,286047002.6,N
1543229635.7,286046997.1,N
1543229655.6,286047000.3,N
1543229675.4,286047002.4,N
1543229695.2,286046999.3,N
1543229715.1,286046997.6,N
1543229716.0,286046997.6,N
1543229735.8,286046993.8,N
1543229755.7,286046997.3,N
1543229775.5,286047002.6,N
1543229795.3,286047011.4,N
1543229815.2,286047011.9,N
1543229835.0,286047010.8,N
1543229835.9,286047010.8,N
1543229855.7,286047008.6,N
1543229875.6,286047008.2,N
1543229895.4,286047004.7,N
1543229915.3,286047006.9,N
1543229935.1,286047008.4,N
1543229955.8,286047007.4,N
1543229975.7,286047004.2,N
1543229995.5,286047002.0,N
